NORTHERN QUEENS  -  Heat Advisory Heat Advisory     Flash Flood Watch Flash Flood Watch     Rip Current Statement Rip Current Statement        SOUTHERN QUEENS  -  Heat Advisory Heat Advisory     Flash Flood Watch Flash Flood Watch     Rip Current Statement Rip Current Statement        NORTHERN NASSAU  -  Flash Flood Watch Flash Flood Watch     Rip Current Statement Rip Current Statement        SOUTHERN NASSAU  -  Flash Flood Watch Flash Flood Watch     Rip Current Statement Rip Current Statement        NORTHEAST SUFFOLK  -  Rip Current Statement Rip Current Statement        NORTHWEST SUFFOLK  -  Rip Current Statement Rip Current Statement        SOUTHEAST SUFFOLK  -  Rip Current Statement Rip Current Statement        SOUTHWEST SUFFOLK  -  Rip Current Statement Rip Current Statement      

Active alerts

Northern Queens
  Details for Northern Queens Heat Advisory  +2 additional alerts
Southern Queens
  Details for Southern Queens Heat Advisory  +2 additional alerts
Northern Nassau
  Details for Northern Nassau Flash Flood Watch  +1 additional alert
Southern Nassau
  Details for Southern Nassau Flash Flood Watch  +1 additional alert
Northwest Suffolk
  Details for Northwest Suffolk Rip Current Statement
Southwest Suffolk
  Details for Southwest Suffolk Rip Current Statement
Northeast Suffolk
  Details for Northeast Suffolk Rip Current Statement
Southeast Suffolk
  Details for Southeast Suffolk Rip Current Statement


WXM80 ListenWXM80 Stop

You find our weather info also at:

UK Metoffice

WeatherCloud

Weather Underground

Northeastern Weather Network

AWEKAS

Citizen Weather Observer Program (CWOP)

HAMweather, WeatherForYou, PWS Weather


Weather Underground History page Text

Daily Summary for April 20, 2016 Units:  English    Metric   Both
« Previous Day
Next Day »
Daily Weekly Monthly Yearly Custom
  High: Low: Average:
Temperature: 69.3 °F 47.6 °F 56.7 °F
Dew Point: 41.4 °F 23.6 °F 34.9 °F
Humidity: 71 % 18 % 47 %
Wind Speed: 8.9 mph 0.0 mph 3 mph
Wind Gust: 13.8 mph - -
Wind:- - SW
Pressure: 30.24 in 30.11 in -
Precipitation: 0.00 in    
Historical Graphs
 
 
Tabular Data for April 20, 2016
Time Temperature Dew Point Pressure Wind Wind Speed Wind Gust Humidity Rainfall Rate (Hourly)
00:04 53.9 °F 37.6 °F 30.11 in NW 1.9 mph 6.9 mph 54 % 0.00 in
00:09 53.8 °F 38.0 °F 30.11 in NNW 0.9 mph 3.5 mph 55 % 0.00 in
00:20 53.5 °F 37.3 °F 30.12 in NNW 0.5 mph 3.5 mph 54 % 0.00 in
00:25 53.4 °F 37.2 °F 30.12 in North 2.6 mph 5.8 mph 54 % 0.00 in
00:30 53.3 °F 36.1 °F 30.12 in NW 0.7 mph 6.0 mph 52 % 0.00 in
00:35 53.2 °F 36.0 °F 30.12 in NNW 1.6 mph 4.0 mph 52 % 0.00 in
00:40 53.1 °F 35.9 °F 30.12 in NE 2.4 mph 6.9 mph 52 % 0.00 in
00:45 53.2 °F 36.0 °F 30.12 in NNW 2.8 mph 4.0 mph 52 % 0.00 in
00:50 53.1 °F 35.9 °F 30.12 in NNW 1.3 mph 3.5 mph 52 % 0.00 in
00:55 53.1 °F 36.4 °F 30.12 in North 1.6 mph 6.9 mph 53 % 0.00 in
01:00 53.1 °F 35.9 °F 30.12 in NW 4.9 mph 8.1 mph 52 % 0.00 in
01:06 53.2 °F 34.5 °F 30.12 in North 4.5 mph 11.5 mph 49 % 0.00 in
01:11 53.3 °F 35.1 °F 30.12 in NNW 3.0 mph 8.1 mph 50 % 0.00 in
01:16 53.3 °F 35.1 °F 30.12 in NNW 5.3 mph 9.2 mph 50 % 0.00 in
01:21 53.2 °F 36.5 °F 30.13 in WNW 0.9 mph 3.5 mph 53 % 0.00 in
01:26 53.2 °F 36.5 °F 30.13 in NW 4.0 mph 9.2 mph 53 % 0.00 in
01:31 53.0 °F 35.8 °F 30.13 in NNW 0.5 mph 3.5 mph 52 % 0.00 in
01:36 53.0 °F 35.8 °F 30.13 in NNW 2.1 mph 4.6 mph 52 % 0.00 in
01:41 52.9 °F 36.2 °F 30.13 in NNW 1.3 mph 3.5 mph 53 % 0.00 in
01:46 52.8 °F 37.5 °F 30.13 in NW 0.2 mph 3.5 mph 56 % 0.00 in
01:51 52.6 °F 36.4 °F 30.13 in NNE 0.7 mph 4.6 mph 54 % 0.00 in
01:57 52.5 °F 36.8 °F 30.13 in WNW 2.3 mph 8.0 mph 55 % 0.00 in
02:02 52.4 °F 36.7 °F 30.13 in WNW 2.5 mph 5.8 mph 55 % 0.00 in
02:07 52.3 °F 36.6 °F 30.13 in NW 3.7 mph 10.4 mph 55 % 0.00 in
02:12 52.2 °F 35.1 °F 30.13 in NW 4.3 mph 6.9 mph 52 % 0.00 in
02:17 52.3 °F 35.7 °F 30.13 in NNW 3.1 mph 6.9 mph 53 % 0.00 in
02:22 52.3 °F 34.7 °F 30.13 in North 2.9 mph 6.0 mph 51 % 0.00 in
02:27 52.2 °F 35.1 °F 30.13 in NW 3.6 mph 11.5 mph 52 % 0.00 in
02:32 52.2 °F 35.1 °F 30.14 in West 1.6 mph 5.8 mph 52 % 0.00 in
02:37 52.2 °F 36.0 °F 30.14 in NNW 3.0 mph 6.9 mph 54 % 0.00 in
02:42 52.1 °F 35.0 °F 30.13 in WNW 2.7 mph 10.4 mph 52 % 0.00 in
02:48 52.1 °F 35.9 °F 30.14 in NW 2.4 mph 8.1 mph 54 % 0.00 in
02:53 52.0 °F 36.3 °F 30.13 in West 3.0 mph 6.9 mph 55 % 0.00 in
02:58 51.9 °F 35.8 °F 30.13 in NE 3.6 mph 8.1 mph 54 % 0.00 in
03:03 51.8 °F 35.7 °F 30.13 in NNW 5.3 mph 8.1 mph 54 % 0.00 in
03:08 51.7 °F 35.6 °F 30.13 in WNW 0.6 mph 4.0 mph 54 % 0.00 in
03:13 51.7 °F 34.6 °F 30.13 in NW 0.9 mph 2.3 mph 52 % 0.00 in
03:18 51.6 °F 35.0 °F 30.13 in WNW 1.0 mph 3.5 mph 53 % 0.00 in
03:23 51.5 °F 34.9 °F 30.13 in NW 2.1 mph 6.9 mph 53 % 0.00 in
03:28 51.4 °F 35.3 °F 30.13 in WNW 1.4 mph 3.0 mph 54 % 0.00 in
03:33 51.4 °F 35.3 °F 30.13 in NNW 0.7 mph 2.0 mph 54 % 0.00 in
03:44 51.1 °F 36.4 °F 30.14 in West 1.1 mph 3.0 mph 57 % 0.00 in
03:49 51.0 °F 36.7 °F 30.14 in NW 0.5 mph 2.3 mph 58 % 0.00 in
03:54 50.8 °F 37.4 °F 30.14 in NW 0.5 mph 2.3 mph 60 % 0.00 in
03:59 50.6 °F 36.4 °F 30.14 in NNW 3.4 mph 6.0 mph 58 % 0.00 in
04:04 50.5 °F 35.4 °F 30.14 in NW 1.2 mph 4.6 mph 56 % 0.00 in
04:14 50.4 °F 36.6 °F 30.14 in NW 2.3 mph 3.5 mph 59 % 0.00 in
04:19 50.4 °F 37.4 °F 30.14 in West 2.6 mph 5.0 mph 61 % 0.00 in
04:24 50.3 °F 36.1 °F 30.14 in WNW 2.4 mph 5.0 mph 58 % 0.00 in
04:30 50.2 °F 35.5 °F 30.14 in WNW 1.7 mph 4.0 mph 57 % 0.00 in
04:35 50.2 °F 35.5 °F 30.15 in West 3.2 mph 4.6 mph 57 % 0.00 in
04:40 50.1 °F 35.0 °F 30.15 in WNW 3.5 mph 7.0 mph 56 % 0.00 in
04:45 50.1 °F 34.5 °F 30.15 in WSW 3.1 mph 5.8 mph 55 % 0.00 in
04:50 50.0 °F 34.5 °F 30.15 in WNW 4.0 mph 8.1 mph 55 % 0.00 in
04:55 50.0 °F 34.9 °F 30.15 in WNW 1.9 mph 3.5 mph 56 % 0.00 in
05:00 49.9 °F 34.4 °F 30.15 in WNW 1.6 mph 4.6 mph 55 % 0.00 in
05:05 49.8 °F 34.3 °F 30.15 in West 2.4 mph 5.8 mph 55 % 0.00 in
05:10 49.7 °F 34.6 °F 30.16 in NW 1.8 mph 3.5 mph 56 % 0.00 in
05:15 49.6 °F 35.8 °F 30.16 in WNW 2.0 mph 5.8 mph 59 % 0.00 in
05:21 49.5 °F 36.6 °F 30.16 in WNW 1.2 mph 3.5 mph 61 % 0.00 in
05:26 49.4 °F 36.5 °F 30.16 in WNW 2.2 mph 5.0 mph 61 % 0.00 in
05:31 49.3 °F 36.8 °F 30.16 in NW 3.4 mph 6.9 mph 62 % 0.00 in
05:36 49.2 °F 36.7 °F 30.17 in WNW 0.7 mph 3.5 mph 62 % 0.00 in
05:51 48.9 °F 37.3 °F 30.17 in WNW 1.6 mph 3.5 mph 64 % 0.00 in
05:56 48.8 °F 37.2 °F 30.17 in WNW 2.2 mph 4.6 mph 64 % 0.00 in
06:01 48.6 °F 37.0 °F 30.17 in WNW 2.3 mph 6.0 mph 64 % 0.00 in
06:06 48.5 °F 37.3 °F 30.18 in WNW 2.0 mph 4.6 mph 65 % 0.00 in
06:12 48.4 °F 37.2 °F 30.18 in West 2.4 mph 5.8 mph 65 % 0.00 in
06:17 48.4 °F 37.6 °F 30.19 in WNW 2.1 mph 3.5 mph 66 % 0.00 in
06:22 48.3 °F 37.5 °F 30.19 in NW 0.6 mph 3.5 mph 66 % 0.00 in
06:27 48.3 °F 37.1 °F 30.19 in NW 1.2 mph 3.5 mph 65 % 0.00 in
06:32 48.2 °F 37.0 °F 30.19 in North 1.5 mph 3.5 mph 65 % 0.00 in
06:37 48.3 °F 36.7 °F 30.19 in NW 1.1 mph 3.5 mph 64 % 0.00 in
06:42 48.4 °F 36.8 °F 30.19 in WNW 0.6 mph 5.0 mph 64 % 0.00 in
06:47 48.6 °F 36.6 °F 30.19 in NNW 1.1 mph 3.5 mph 63 % 0.00 in
06:52 48.8 °F 36.8 °F 30.20 in NNW 1.0 mph 3.5 mph 63 % 0.00 in
06:57 49.2 °F 37.1 °F 30.20 in NW 1.2 mph 4.6 mph 63 % 0.00 in
07:03 49.5 °F 37.0 °F 30.20 in WNW 2.2 mph 6.9 mph 62 % 0.00 in
07:08 49.9 °F 37.4 °F 30.21 in NW 1.4 mph 3.5 mph 62 % 0.00 in
07:13 50.2 °F 37.3 °F 30.20 in NW 0.8 mph 3.5 mph 61 % 0.00 in
07:18 50.5 °F 37.5 °F 30.20 in NNE 2.4 mph 3.5 mph 61 % 0.00 in
07:23 50.8 °F 37.0 °F 30.20 in NNW 3.2 mph 5.0 mph 59 % 0.00 in
07:28 51.1 °F 37.3 °F 30.20 in NW 4.6 mph 6.9 mph 59 % 0.00 in
07:33 51.4 °F 37.5 °F 30.21 in NNW 2.3 mph 5.8 mph 59 % 0.00 in
07:38 51.6 °F 37.7 °F 30.21 in NW 2.2 mph 3.5 mph 59 % 0.00 in
07:43 51.8 °F 37.5 °F 30.21 in NNE 2.5 mph 5.0 mph 58 % 0.00 in
07:54 52.1 °F 37.3 °F 30.22 in NW 1.4 mph 3.5 mph 57 % 0.00 in
07:59 52.3 °F 37.5 °F 30.22 in WNW 2.4 mph 4.6 mph 57 % 0.00 in
08:04 52.6 °F 38.2 °F 30.22 in NW 1.0 mph 3.5 mph 58 % 0.00 in
08:09 52.8 °F 37.5 °F 30.23 in NNE 3.3 mph 5.8 mph 56 % 0.00 in
08:14 53.0 °F 38.6 °F 30.22 in NNE 2.4 mph 3.5 mph 58 % 0.00 in
08:19 53.2 °F 37.4 °F 30.23 in NNW 4.9 mph 8.1 mph 55 % 0.00 in
08:24 53.2 °F 37.4 °F 30.23 in North 4.4 mph 8.1 mph 55 % 0.00 in
08:29 53.4 °F 36.7 °F 30.23 in North 4.9 mph 8.1 mph 53 % 0.00 in
08:34 53.7 °F 36.0 °F 30.23 in North 5.9 mph 6.9 mph 51 % 0.00 in
08:39 53.9 °F 34.6 °F 30.23 in NE 6.9 mph 10.0 mph 48 % 0.00 in
08:45 54.3 °F 36.0 °F 30.23 in NE 5.2 mph 7.0 mph 50 % 0.00 in
08:50 54.8 °F 37.0 °F 30.23 in NNE 3.2 mph 6.0 mph 51 % 0.00 in
09:00 55.7 °F 36.8 °F 30.23 in NNE 4.5 mph 9.2 mph 49 % 0.00 in
09:05 56.0 °F 37.1 °F 30.23 in NNE 6.2 mph 10.4 mph 49 % 0.00 in
09:10 56.2 °F 37.3 °F 30.24 in NE 4.7 mph 8.0 mph 49 % 0.00 in
09:15 56.6 °F 38.2 °F 30.24 in NNE 4.7 mph 8.1 mph 50 % 0.00 in
09:20 57.2 °F 37.7 °F 30.24 in NE 5.1 mph 10.4 mph 48 % 0.00 in
09:25 57.7 °F 39.2 °F 30.23 in NE 4.6 mph 8.0 mph 50 % 0.00 in
09:31 58.2 °F 38.6 °F 30.23 in East 3.3 mph 8.1 mph 48 % 0.00 in
09:36 58.7 °F 39.6 °F 30.23 in ENE 3.0 mph 3.5 mph 49 % 0.00 in
09:41 59.3 °F 39.1 °F 30.23 in NNE 3.7 mph 5.8 mph 47 % 0.00 in
09:46 59.7 °F 38.3 °F 30.23 in NNE 3.9 mph 8.1 mph 45 % 0.00 in
09:51 59.9 °F 37.9 °F 30.23 in NNE 7.0 mph 10.4 mph 44 % 0.00 in
09:56 60.3 °F 38.3 °F 30.23 in NE 6.9 mph 11.5 mph 44 % 0.00 in
10:01 60.2 °F 35.8 °F 30.23 in NNE 8.9 mph 11.5 mph 40 % 0.00 in
10:06 60.2 °F 36.4 °F 30.23 in NNE 7.9 mph 9.2 mph 41 % 0.00 in
10:11 60.3 °F 35.9 °F 30.24 in NNE 6.8 mph 10.4 mph 40 % 0.00 in
10:16 60.5 °F 35.4 °F 30.24 in NNW 6.9 mph 9.0 mph 39 % 0.00 in
10:22 60.5 °F 36.0 °F 30.24 in NNW 3.4 mph 6.9 mph 40 % 0.00 in
10:27 60.8 °F 38.1 °F 30.24 in North 2.6 mph 9.2 mph 43 % 0.00 in
10:32 60.9 °F 37.6 °F 30.24 in North 4.9 mph 11.5 mph 42 % 0.00 in
10:37 60.9 °F 37.6 °F 30.24 in North 6.4 mph 11.5 mph 42 % 0.00 in
10:42 60.5 °F 36.7 °F 30.24 in North 5.2 mph 10.4 mph 41 % 0.00 in
10:47 60.5 °F 37.3 °F 30.24 in North 4.7 mph 8.1 mph 42 % 0.00 in
10:52 60.6 °F 38.6 °F 30.24 in NNE 3.0 mph 4.6 mph 44 % 0.00 in
10:57 61.3 °F 41.4 °F 30.24 in NNE 3.0 mph 4.6 mph 48 % 0.00 in
11:02 62.1 °F 39.9 °F 30.23 in North 3.6 mph 4.6 mph 44 % 0.00 in
11:07 62.3 °F 38.9 °F 30.23 in NNE 4.4 mph 6.9 mph 42 % 0.00 in
11:12 62.7 °F 38.6 °F 30.23 in East 3.4 mph 5.8 mph 41 % 0.00 in
11:18 63.0 °F 37.0 °F 30.23 in East 4.4 mph 4.4 mph 38 % 0.00 in
11:23 63.1 °F 37.1 °F 30.24 in NNE 4.4 mph 6.9 mph 38 % 0.00 in
11:28 63.5 °F 40.6 °F 30.23 in North 3.1 mph 5.8 mph 43 % 0.00 in
11:33 63.9 °F 41.0 °F 30.23 in North 2.5 mph 3.5 mph 43 % 0.00 in
11:38 64.2 °F 36.7 °F 30.23 in NW 5.4 mph 8.0 mph 36 % 0.00 in
11:43 64.1 °F 35.9 °F 30.24 in North 4.3 mph 4.6 mph 35 % 0.00 in
11:48 64.2 °F 36.0 °F 30.24 in North 4.7 mph 6.9 mph 35 % 0.00 in
11:53 64.1 °F 33.6 °F 30.24 in NNW 3.5 mph 4.6 mph 32 % 0.00 in
11:58 64.2 °F 34.5 °F 30.24 in NNE 2.1 mph 3.5 mph 33 % 0.00 in
12:03 64.7 °F 35.7 °F 30.24 in NNE 2.3 mph 4.0 mph 34 % 0.00 in
12:09 64.7 °F 33.3 °F 30.24 in NNE 3.9 mph 5.0 mph 31 % 0.00 in
12:14 64.8 °F 35.0 °F 30.24 in NNE 5.8 mph 8.1 mph 33 % 0.00 in
12:24 65.2 °F 35.4 °F 30.23 in North 2.6 mph 5.0 mph 33 % 0.00 in
12:29 64.2 °F 32.1 °F 30.23 in North 5.2 mph 6.9 mph 30 % 0.00 in
12:34 64.4 °F 33.9 °F 30.23 in NNE 2.3 mph 3.5 mph 32 % 0.00 in
12:39 64.8 °F 34.2 °F 30.23 in NW 2.8 mph 5.8 mph 32 % 0.00 in
12:44 65.2 °F 34.6 °F 30.23 in North 2.9 mph 4.6 mph 32 % 0.00 in
12:49 65.5 °F 33.2 °F 30.23 in NNW 1.8 mph 4.6 mph 30 % 0.00 in
12:54 65.8 °F 33.5 °F 30.23 in WNW 2.7 mph 5.8 mph 30 % 0.00 in
13:00 65.6 °F 32.5 °F 30.23 in North 3.0 mph 5.0 mph 29 % 0.00 in
13:05 65.9 °F 30.0 °F 30.23 in NNW 2.3 mph 5.0 mph 26 % 0.00 in
13:10 65.8 °F 28.0 °F 30.22 in NNW 1.8 mph 3.5 mph 24 % 0.00 in
13:15 65.6 °F 30.7 °F 30.22 in North 2.7 mph 5.0 mph 27 % 0.00 in
13:20 66.0 °F 27.1 °F 30.22 in NNW 0.9 mph 2.3 mph 23 % 0.00 in
13:25 66.2 °F 28.3 °F 30.22 in NW 2.3 mph 4.6 mph 24 % 0.00 in
13:30 66.2 °F 30.3 °F 30.22 in NNE 2.0 mph 3.5 mph 26 % 0.00 in
13:35 66.1 °F 27.2 °F 30.22 in NW 2.8 mph 4.6 mph 23 % 0.00 in
13:40 66.3 °F 29.4 °F 30.22 in NNE 2.7 mph 4.6 mph 25 % 0.00 in
13:45 66.5 °F 32.4 °F 30.22 in NNE 2.7 mph 3.5 mph 28 % 0.00 in
13:51 67.2 °F 29.2 °F 30.21 in NW 3.4 mph 6.0 mph 24 % 0.00 in
13:56 67.3 °F 27.1 °F 30.21 in NW 1.3 mph 3.5 mph 22 % 0.00 in
14:01 67.2 °F 31.1 °F 30.21 in NNE 3.0 mph 4.6 mph 26 % 0.00 in
14:06 67.5 °F 29.4 °F 30.21 in North 1.4 mph 3.5 mph 24 % 0.00 in
14:11 67.5 °F 31.4 °F 30.21 in North 1.0 mph 3.5 mph 26 % 0.00 in
14:16 67.4 °F 27.2 °F 30.21 in North 1.9 mph 5.0 mph 22 % 0.00 in
14:21 67.3 °F 28.2 °F 30.21 in North 2.7 mph 4.6 mph 23 % 0.00 in
14:26 67.0 °F 25.7 °F 30.20 in NW 1.5 mph 4.0 mph 21 % 0.00 in
14:31 67.0 °F 30.0 °F 30.20 in North 2.2 mph 3.5 mph 25 % 0.00 in
14:36 67.0 °F 26.9 °F 30.20 in ENE 0.6 mph 2.0 mph 22 % 0.00 in
14:42 66.4 °F 28.5 °F 30.19 in ENE 1.9 mph 3.5 mph 24 % 0.00 in
14:52 66.4 °F 27.4 °F 30.19 in ENE 3.8 mph 4.6 mph 23 % 0.00 in
14:57 66.1 °F 25.0 °F 30.19 in North 1.1 mph 4.0 mph 21 % 0.00 in
15:02 66.3 °F 27.4 °F 30.19 in North 1.9 mph 3.5 mph 23 % 0.00 in
15:07 66.8 °F 26.7 °F 30.19 in WNW 3.5 mph 4.6 mph 22 % 0.00 in
15:12 66.7 °F 24.3 °F 30.19 in WNW 1.0 mph 3.5 mph 20 % 0.00 in
15:17 66.8 °F 28.8 °F 30.19 in NNW 0.1 mph 3.5 mph 24 % 0.00 in
15:22 67.0 °F 31.0 °F 30.19 in WNW 2.7 mph 5.0 mph 26 % 0.00 in
15:33 67.0 °F 25.7 °F 30.19 in NNE 3.1 mph 3.5 mph 21 % 0.00 in
15:38 67.2 °F 25.9 °F 30.18 in North 2.6 mph 4.6 mph 21 % 0.00 in
15:43 67.5 °F 27.3 °F 30.18 in North 2.5 mph 4.0 mph 22 % 0.00 in
15:48 67.6 °F 27.4 °F 30.18 in NNE 3.0 mph 3.5 mph 22 % 0.00 in
15:53 67.6 °F 25.1 °F 30.18 in WSW 3.7 mph 6.9 mph 20 % 0.00 in
15:58 67.8 °F 25.2 °F 30.18 in WNW 4.7 mph 6.0 mph 20 % 0.00 in
16:03 67.9 °F 24.1 °F 30.18 in West 1.7 mph 3.5 mph 19 % 0.00 in
16:08 68.0 °F 27.7 °F 30.18 in NNW 3.5 mph 5.0 mph 22 % 0.00 in
16:13 68.2 °F 27.9 °F 30.17 in Calm   1.2 mph 22 % 0.00 in
16:24 68.5 °F 25.8 °F 30.17 in NW 1.5 mph 3.5 mph 20 % 0.00 in
16:29 68.7 °F 27.2 °F 30.17 in NW 2.2 mph 3.5 mph 21 % 0.00 in
16:34 68.9 °F 27.3 °F 30.17 in WNW 0.1 mph 1.2 mph 21 % 0.00 in
16:39 68.9 °F 27.3 °F 30.17 in West 2.4 mph 4.6 mph 21 % 0.00 in
16:49 69.0 °F 26.2 °F 30.17 in West 3.2 mph 4.0 mph 20 % 0.00 in
16:54 69.2 °F 28.7 °F 30.17 in WNW 0.5 mph 1.2 mph 22 % 0.00 in
16:59 69.3 °F 27.7 °F 30.17 in SSW 0.3 mph 2.3 mph 21 % 0.00 in
17:04 69.3 °F 27.7 °F 30.17 in NNW 2.4 mph 3.5 mph 21 % 0.00 in
17:09 69.2 °F 26.4 °F 30.17 in West 1.4 mph 4.6 mph 20 % 0.00 in
17:15 69.1 °F 26.3 °F 30.17 in NW 0.5 mph 3.5 mph 20 % 0.00 in
17:20 69.1 °F 23.8 °F 30.17 in WSW 3.8 mph 5.8 mph 18 % 0.00 in
17:25 69.1 °F 25.1 °F 30.17 in SW 3.6 mph 4.6 mph 19 % 0.00 in
17:35 68.9 °F 23.6 °F 30.17 in SW 2.4 mph 5.0 mph 18 % 0.00 in
17:40 68.7 °F 27.2 °F 30.17 in South 3.4 mph 6.0 mph 21 % 0.00 in
17:45 67.4 °F 34.0 °F 30.17 in SE 2.5 mph 5.8 mph 29 % 0.00 in
17:50 65.7 °F 35.0 °F 30.17 in SE 3.7 mph 11.5 mph 32 % 0.00 in
17:55 63.9 °F 33.4 °F 30.17 in ESE 6.8 mph 11.0 mph 32 % 0.00 in
18:01 62.0 °F 32.5 °F 30.17 in SSW 6.2 mph 13.8 mph 33 % 0.00 in
18:06 61.1 °F 32.5 °F 30.17 in SSE 6.4 mph 11.5 mph 34 % 0.00 in
18:11 60.2 °F 33.1 °F 30.17 in SE 5.3 mph 12.7 mph 36 % 0.00 in
18:16 59.6 °F 32.6 °F 30.17 in SSW 5.1 mph 9.2 mph 36 % 0.00 in
18:21 59.3 °F 32.3 °F 30.17 in South 3.2 mph 6.9 mph 36 % 0.00 in
18:26 59.1 °F 32.8 °F 30.18 in South 4.6 mph 8.1 mph 37 % 0.00 in
18:31 58.9 °F 32.7 °F 30.17 in SE 2.1 mph 6.9 mph 37 % 0.00 in
18:36 58.6 °F 33.0 °F 30.17 in SSE 7.8 mph 11.5 mph 38 % 0.00 in
18:41 58.3 °F 33.4 °F 30.17 in SSE 3.8 mph 6.9 mph 39 % 0.00 in
18:46 57.9 °F 33.1 °F 30.18 in South 6.3 mph 10.4 mph 39 % 0.00 in
18:52 57.6 °F 32.8 °F 30.17 in SSE 4.2 mph 8.1 mph 39 % 0.00 in
18:57 57.4 °F 32.6 °F 30.17 in SSE 3.4 mph 9.2 mph 39 % 0.00 in
19:02 57.2 °F 33.1 °F 30.17 in SE 4.8 mph 8.1 mph 40 % 0.00 in
19:07 56.9 °F 32.8 °F 30.19 in South 4.9 mph 9.2 mph 40 % 0.00 in
19:12 56.6 °F 32.5 °F 30.18 in South 3.5 mph 6.9 mph 40 % 0.00 in
19:17 56.4 °F 33.0 °F 30.18 in South 4.0 mph 6.9 mph 41 % 0.00 in
19:22 56.2 °F 33.4 °F 30.18 in SSE 4.5 mph 8.1 mph 42 % 0.00 in
19:27 55.9 °F 33.1 °F 30.17 in SSE 2.7 mph 4.6 mph 42 % 0.00 in
19:32 55.6 °F 33.4 °F 30.17 in SSE 2.8 mph 6.9 mph 43 % 0.00 in
19:37 55.3 °F 33.7 °F 30.18 in South 6.6 mph 9.2 mph 44 % 0.00 in
19:43 55.0 °F 33.5 °F 30.18 in SSE 3.3 mph 4.0 mph 44 % 0.00 in
19:48 54.7 °F 33.8 °F 30.18 in SSE 5.0 mph 8.1 mph 45 % 0.00 in
19:53 54.3 °F 33.9 °F 30.18 in SSE 5.5 mph 9.2 mph 46 % 0.00 in
19:58 54.0 °F 34.2 °F 30.18 in SSW 3.5 mph 4.6 mph 47 % 0.00 in
20:03 53.7 °F 35.0 °F 30.18 in South 3.2 mph 5.8 mph 49 % 0.00 in
20:08 53.3 °F 35.6 °F 30.18 in South 4.8 mph 8.1 mph 51 % 0.00 in
20:13 53.0 °F 36.3 °F 30.18 in South 6.1 mph 9.2 mph 53 % 0.00 in
20:18 52.7 °F 37.0 °F 30.18 in South 4.6 mph 10.4 mph 55 % 0.00 in
20:23 52.4 °F 37.2 °F 30.18 in South 4.8 mph 8.1 mph 56 % 0.00 in
20:34 51.9 °F 38.0 °F 30.18 in SSW 4.2 mph 11.5 mph 59 % 0.00 in
20:39 51.8 °F 38.8 °F 30.19 in South 4.7 mph 9.2 mph 61 % 0.00 in
20:44 51.6 °F 39.4 °F 30.19 in South 5.6 mph 8.1 mph 63 % 0.00 in
20:49 51.4 °F 39.6 °F 30.19 in SSE 5.9 mph 11.5 mph 64 % 0.00 in
20:54 51.3 °F 40.3 °F 30.19 in South 6.1 mph 9.0 mph 66 % 0.00 in
20:59 51.1 °F 40.5 °F 30.19 in South 4.1 mph 8.1 mph 67 % 0.00 in
21:04 51.0 °F 40.8 °F 30.19 in SSW 2.3 mph 5.8 mph 68 % 0.00 in
21:09 50.9 °F 40.7 °F 30.19 in South 4.1 mph 10.4 mph 68 % 0.00 in
21:14 50.7 °F 40.5 °F 30.19 in South 3.9 mph 5.8 mph 68 % 0.00 in
21:19 50.6 °F 40.0 °F 30.19 in South 2.5 mph 6.0 mph 67 % 0.00 in
21:25 50.5 °F 39.9 °F 30.19 in SSW 5.7 mph 10.4 mph 67 % 0.00 in
21:30 50.3 °F 39.4 °F 30.19 in South 3.1 mph 4.6 mph 66 % 0.00 in
21:35 50.2 °F 39.3 °F 30.19 in SSW 5.6 mph 8.1 mph 66 % 0.00 in
21:40 50.1 °F 39.2 °F 30.19 in South 5.2 mph 7.0 mph 66 % 0.00 in
21:45 50.0 °F 39.5 °F 30.19 in SSW 4.8 mph 9.2 mph 67 % 0.00 in
21:50 50.0 °F 39.5 °F 30.19 in South 3.8 mph 6.9 mph 67 % 0.00 in
21:55 49.9 °F 39.4 °F 30.20 in SSW 3.5 mph 5.8 mph 67 % 0.00 in
22:00 49.8 °F 39.3 °F 30.20 in South 2.7 mph 4.6 mph 67 % 0.00 in
22:05 49.7 °F 39.2 °F 30.20 in South 2.9 mph 6.9 mph 67 % 0.00 in
22:10 49.7 °F 39.2 °F 30.20 in South 4.8 mph 10.0 mph 67 % 0.00 in
22:16 49.6 °F 39.5 °F 30.20 in SW 2.5 mph 6.0 mph 68 % 0.00 in
22:21 49.5 °F 39.4 °F 30.20 in SSW 3.9 mph 6.9 mph 68 % 0.00 in
22:26 49.5 °F 39.4 °F 30.19 in SSE 3.7 mph 6.0 mph 68 % 0.00 in
22:31 49.4 °F 39.3 °F 30.20 in South 1.1 mph 3.5 mph 68 % 0.00 in
22:36 49.4 °F 39.3 °F 30.20 in SSW 2.9 mph 3.5 mph 68 % 0.00 in
22:41 49.2 °F 39.1 °F 30.20 in SSW 1.4 mph 4.6 mph 68 % 0.00 in
22:46 49.1 °F 39.4 °F 30.20 in SSW 2.6 mph 5.0 mph 69 % 0.00 in
22:51 49.1 °F 39.4 °F 30.20 in SSE 0.3 mph 2.3 mph 69 % 0.00 in
22:56 49.0 °F 39.3 °F 30.20 in Calm   1.2 mph 69 % 0.00 in
23:01 48.8 °F 39.1 °F 30.20 in NNE 0.1 mph 2.3 mph 69 % 0.00 in
23:07 48.7 °F 39.0 °F 30.20 in NNE 0.9 mph 2.3 mph 69 % 0.00 in
23:12 48.7 °F 39.0 °F 30.20 in Calm     69 % 0.00 in
23:17 48.6 °F 38.9 °F 30.20 in Calm     69 % 0.00 in
23:22 48.5 °F 39.2 °F 30.20 in Calm     70 % 0.00 in
23:27 48.3 °F 39.0 °F 30.21 in NW 0.1 mph 1.2 mph 70 % 0.00 in
23:32 48.2 °F 39.2 °F 30.20 in West 0.4 mph 3.5 mph 71 % 0.00 in
23:37 48.1 °F 38.8 °F 30.20 in Calm     70 % 0.00 in
23:42 48.1 °F 38.8 °F 30.20 in Calm     70 % 0.00 in
23:47 47.9 °F 38.6 °F 30.20 in Calm     70 % 0.00 in
23:52 47.8 °F 38.8 °F 30.20 in Calm     71 % 0.00 in
23:58 47.6 °F 38.7 °F 30.20 in Calm     71 % 0.00 in
Crab Meadow Weather
Compliments of Weather Underground - 2.75 mb

Script developed by  Jim McMurry - jmcmurry@mwt.net Adapted for the template by  Wim van der Kuil - Leuven-Template.eu

Weather Terms: Enhanced Fujita Scale or EF-Scale - A scale of wind damage intensity in which wind speeds are inferred from analysis of wind damage. All tornadoes and most other windstorms are assigned a numerical rating from this scale according to the most intense damage caused by the storm. EF0 (weak) 6585 mph, light damage EF1 (weak) 86110 mph, moderate damage EF2 (strong) 111135 mph, considerable damage EF3 (strong) 136165 mph, severe damage EF4 (violent) 166200 mph, devastating damage EF5 (violent) >200 mph, incredible damage.